994  
ASUS43 KFSD 210810  
RWRFSD  
 
WEATHER ROUNDUP FOR SE SOUTH DAKOTA/SW MINNESOTA/NW IOWA  
NATIONAL WEATHER SERVICE SIOUX FALLS SD  
300 AM CDT FRI JUN 21 2024  
 
NOTE: "FAIR" INDICATES FEW OR NO CLOUDS BELOW 12,000 FEET WITH NO  
SIGNIFICANT WEATHER AND OR S TO VISIBILITY
.  
 
 
SDZ038>040-050-052>070-210900-  
SOUTHEAST SOUTH DAKOTA  
 
CITY SKY/WX TMP DP RH WIND PRES REMARKS
 
BROOKINGS RAIN 63 62 97 S13 30.21R TC 17  
CHAMBERLAIN CLOUDY 63 63 100 CALM 30.12S TC 17  
HURON CLOUDY 64 63 96 SE12G23 30.09R TC 18  
MADISON LGT RAIN 63 63 100 SE12 30.19S TC 17  
MITCHELL LGT RAIN 64 63 96 E18 30.08F TC 18  
SIOUX FALLS TSTM 65 63 93 VRB5 30.23R FOG TC 18  
WINNER CLOUDY 65 63 93 SE10 30.11S TC 18  
YANKTON N/A 65 64 97 NE21 30.14F TC 18  

 
 
MNZ071-072-080-081-089-090-097-098-210900-  
SOUTHWEST MINNESOTA  
 
CITY SKY/WX TMP DP RH WIND PRES REMARKS
 
FAIRMONT LGT RAIN 63 61 94 N3 30.19F FOG TC 17  
JACKSON LGT RAIN 63 63 100 NE6 30.24R TC 17  
MARSHALL HVY RAIN 60 32 34 MISG 30.20F TC 16  
MONTEVIDEO LGT RAIN 61 61 100 NE7G17 30.20F TC 16  
REDWOOD FALLS RAIN 61 59 93 N5 30.20F FOG TC 16  
TRACY RAIN 59 59 100 E7 30.18F FOG TC 15  
WINDOM CLOUDY 61 59 94 MISG 30.19R TC 16  
WORTHINGTON TSTM 64 64 100 N16G28 30.21F FOG TC 18  

 
 
IAZ001>003-012>014-020>022-031-032-NEZ013-014-SDZ071-210900-  
NORTHWEST IOWA  
 
CITY SKY/WX TMP DP RH WIND PRES REMARKS
 
CHEROKEE CLOUDY 72 68 88 SE10G17 30.12F TC 22  
DENISON MOCLDY 73 73 100 SE13G20 30.16F TC 23  
ESTHERVILLE CLOUDY 63 63 100 NE6 30.18F FOG TC 17  
LE MARS CLOUDY 70 70 100 S5 30.10S TC 21  
MAURICE CLOUDY 66 66 100 N8 30.12R TC 19  
SHELDON RAIN 64 64 100 N24 30.11F TC 18  
SIOUX CITY CLOUDY 74 72 93 SE10 30.10F TC 23  
SPENCER TSTM 70 66 87 E15 30.16F FOG TC 21  
STORM LAKE CLOUDY 70 70 100 SE15G21 30.15F TC 21  

 
 
ABBREVIATIONS USED IN REMARKS  
TC - TEMPERATURE IN CELSIUS  
WCI - WIND CHILL INDEX  
HX - HEAT INDEX  
VSB - VISIBILITY  
 
 
 
CLICK HERE TO GO TO PREVIOUS BULLETINS.

The Nexlab SD Page
The Nexlab IA Page
The Nexlab MN Page
The Nexlab NE Page Main Text Page